Previsão horária em Jurancice

Hoje, 24 Junho, Quinta-feira

Tempo Temperatura Precipitação Vento Pressão Humidade
00:00 +20°C° 0 mm 2 m/s 758 mmHg 83%
01:00 +19°C° 0 mm 2 m/s 758 mmHg 85%
02:00 +19°C° 0 mm 2 m/s 757 mmHg 84%
03:00 +18°C° 0 mm 3 m/s 757 mmHg 83%
04:00 +18°C° 0 mm 3 m/s 757 mmHg 81%
05:00 +19°C° 0 mm 3 m/s 757 mmHg 78%
06:00 +20°C° 0 mm 3 m/s 757 mmHg 75%
07:00 +21°C° 0 mm 3 m/s 757 mmHg 72%
08:00 +21°C° 0.2 mm 3 m/s 757 mmHg 76%
09:00 +21°C° 0.2 mm 3 m/s 757 mmHg 80%
10:00 +21°C° 0.2 mm 3 m/s 756 mmHg 84%
11:00 +22°C° 0.2 mm 4 m/s 756 mmHg 81%
12:00 +23°C° 0.2 mm 4 m/s 756 mmHg 79%
13:00 +25°C° 0.2 mm 4 m/s 755 mmHg 76%
14:00 +26°C° 0.1 mm 4 m/s 755 mmHg 74%
15:00 +26°C° 0.1 mm 3 m/s 754 mmHg 72%
16:00 +27°C° 0.1 mm 3 m/s 754 mmHg 70%
17:00 +26°C° 0.7 mm 3 m/s 753 mmHg 75%
18:00 +26°C° 0.7 mm 3 m/s 753 mmHg 80%
19:00 +25°C° 0.7 mm 3 m/s 753 mmHg 85%
20:00 +22°C° 0 mm 3 m/s 753 mmHg 89%
21:00 +20°C° 0 mm 3 m/s 753 mmHg 93%
22:00 +19°C° 0 mm 4 m/s 754 mmHg 96%
23:00 +18°C° 0 mm 4 m/s 753 mmHg 96%

Amanhã, 25 Junho, Sexta-feira

Tempo Temperatura Precipitação Vento Pressão Humidade
00:00 +17°C° 0 mm 4 m/s 753 mmHg 96%
01:00 +17°C° 0 mm 4 m/s 753 mmHg 96%
02:00 +17°C° 0 mm 4 m/s 753 mmHg 95%
03:00 +15°C° 0 mm 4 m/s 753 mmHg 94%
04:00 +15°C° 0 mm 5 m/s 753 mmHg 94%
05:00 +15°C° 0 mm 4 m/s 754 mmHg 93%
06:00 +17°C° 0 mm 4 m/s 754 mmHg 92%
07:00 +17°C° 0 mm 4 m/s 754 mmHg 91%
08:00 +18°C° 0 mm 4 m/s 755 mmHg 86%
09:00 +18°C° 0 mm 4 m/s 755 mmHg 81%
10:00 +19°C° 0 mm 4 m/s 755 mmHg 77%
11:00 +20°C° 0 mm 4 m/s 755 mmHg 73%
12:00 +20°C° 0 mm 4 m/s 755 mmHg 70%
13:00 +21°C° 0 mm 4 m/s 755 mmHg 67%
14:00 +21°C° 0.1 mm 3 m/s 755 mmHg 67%
15:00 +21°C° 0.1 mm 3 m/s 755 mmHg 67%
16:00 +21°C° 0.1 mm 3 m/s 755 mmHg 66%
17:00 +21°C° 0.1 mm 3 m/s 755 mmHg 69%
18:00 +20°C° 0.1 mm 3 m/s 755 mmHg 72%
19:00 +20°C° 0.1 mm 2 m/s 755 mmHg 75%
20:00 +19°C° 0 mm 2 m/s 755 mmHg 78%
21:00 +17°C° 0 mm 2 m/s 756 mmHg 81%
22:00 +16°C° 0 mm 2 m/s 756 mmHg 84%
23:00 +16°C° 0 mm 2 m/s 757 mmHg 85%

Depois de amanhã, 26 Junho, Sábado

Tempo Temperatura Precipitação Vento Pressão Humidade
00:00 +15°C° 0 mm 2 m/s 757 mmHg 87%
01:00 +15°C° 0 mm 2 m/s 757 mmHg 88%
02:00 +14°C° 0 mm 2 m/s 757 mmHg 89%
03:00 +14°C° 0 mm 2 m/s 757 mmHg 90%
04:00 +14°C° 0 mm 2 m/s 757 mmHg 91%
05:00 +15°C° 0 mm 2 m/s 757 mmHg 85%
06:00 +17°C° 0 mm 2 m/s 757 mmHg 78%
07:00 +19°C° 0 mm 2 m/s 758 mmHg 72%
08:00 +20°C° 0 mm 3 m/s 758 mmHg 65%
09:00 +21°C° 0 mm 3 m/s 758 mmHg 58%
10:00 +24°C° 0 mm 3 m/s 758 mmHg 51%
11:00 +24°C° 0 mm 3 m/s 757 mmHg 49%
12:00 +25°C° 0 mm 3 m/s 757 mmHg 47%
13:00 +26°C° 0 mm 3 m/s 757 mmHg 45%
14:00 +25°C° 0 mm 3 m/s 757 mmHg 46%
15:00 +25°C° 0 mm 3 m/s 757 mmHg 48%
16:00 +25°C° 0 mm 2 m/s 757 mmHg 49%
17:00 +24°C° 0 mm 2 m/s 757 mmHg 54%
18:00 +23°C° 0 mm 2 m/s 757 mmHg 58%
19:00 +21°C° 0 mm 2 m/s 757 mmHg 63%
20:00 +20°C° 0 mm 2 m/s 757 mmHg 66%
21:00 +18°C° 0 mm 2 m/s 757 mmHg 70%
22:00 +17°C° 0 mm 2 m/s 757 mmHg 73%
23:00 +16°C° 0 mm 2 m/s 757 mmHg 77%

27 Junho, Domingo

Tempo Temperatura Precipitação Vento Pressão Humidade
00:00 +15°C° 0 mm 2 m/s 757 mmHg 81%
01:00 +15°C° 0 mm 2 m/s 757 mmHg 85%
02:00 +15°C° 0 mm 2 m/s 757 mmHg 87%
03:00 +14°C° 0 mm 2 m/s 757 mmHg 89%
04:00 +14°C° 0 mm 1 m/s 757 mmHg 91%
05:00 +16°C° 0 mm 1 m/s 758 mmHg 84%
06:00 +19°C° 0 mm 1 m/s 758 mmHg 76%
07:00 +21°C° 0 mm 1 m/s 758 mmHg 69%
08:00 +22°C° 0 mm 1 m/s 758 mmHg 62%
09:00 +24°C° 0 mm 1 m/s 758 mmHg 55%
10:00 +26°C° 0 mm 1 m/s 757 mmHg 49%
11:00 +26°C° 0 mm 1 m/s 757 mmHg 47%
12:00 +27°C° 0 mm 1 m/s 757 mmHg 45%
13:00 +28°C° 0 mm 1 m/s 757 mmHg 43%
14:00 +28°C° 0 mm 1 m/s 757 mmHg 43%
15:00 +28°C° 0 mm 1 m/s 757 mmHg 44%
16:00 +28°C° 0 mm 1 m/s 757 mmHg 44%
17:00 +27°C° 0 mm 1 m/s 757 mmHg 51%
18:00 +25°C° 0 mm 1 m/s 757 mmHg 57%
19:00 +24°C° 0 mm 1 m/s 757 mmHg 64%
20:00 +24°C° 0 mm 1 m/s 757 mmHg 65%
21:00 +23°C° 0 mm 1 m/s 757 mmHg 66%
22:00 +22°C° 0 mm 1 m/s 757 mmHg 67%
23:00 +22°C° 0 mm 1 m/s 757 mmHg 69%

28 Junho, Segunda-feira

Tempo Temperatura Precipitação Vento Pressão Humidade
00:00 +21°C° 0 mm 1 m/s 757 mmHg 71%
01:00 +20°C° 0 mm 1 m/s 757 mmHg 73%
02:00 +20°C° 0 mm 1 m/s 757 mmHg 73%
03:00 +20°C° 0 mm 1 m/s 757 mmHg 73%
04:00 +20°C° 0 mm 1 m/s 757 mmHg 73%
05:00 +20°C° 0 mm 2 m/s 757 mmHg 72%
06:00 +21°C° 0 mm 2 m/s 757 mmHg 71%
07:00 +21°C° 0 mm 2 m/s 757 mmHg 70%
08:00 +24°C° 0 mm 2 m/s 757 mmHg 65%
09:00 +25°C° 0 mm 2 m/s 757 mmHg 60%
10:00 +27°C° 0 mm 3 m/s 757 mmHg 55%
11:00 +28°C° 0 mm 2 m/s 757 mmHg 51%
12:00 +29°C° 0 mm 2 m/s 756 mmHg 47%
13:00 +30°C° 0 mm 2 m/s 756 mmHg 42%
14:00 +30°C° 0 mm 2 m/s 756 mmHg 44%
15:00 +30°C° 0 mm 2 m/s 756 mmHg 46%
16:00 +29°C° 0 mm 2 m/s 756 mmHg 48%
17:00 +28°C° 0 mm 2 m/s 756 mmHg 53%
18:00 +27°C° 0 mm 3 m/s 756 mmHg 58%
19:00 +26°C° 0 mm 3 m/s 755 mmHg 63%
20:00 +25°C° 0 mm 3 m/s 756 mmHg 66%
21:00 +24°C° 0 mm 3 m/s 756 mmHg 68%
22:00 +21°C° 0 mm 3 m/s 756 mmHg 70%
23:00 +21°C° 0 mm 3 m/s 756 mmHg 71%

29 Junho, Terça-feira

Tempo Temperatura Precipitação Vento Pressão Humidade
00:00 +20°C° 0 mm 3 m/s 755 mmHg 73%
01:00 +20°C° 0 mm 2 m/s 755 mmHg 75%
02:00 +20°C° 0 mm 2 m/s 755 mmHg 76%
03:00 +20°C° 0 mm 2 m/s 755 mmHg 78%
04:00 +19°C° 0 mm 2 m/s 755 mmHg 79%
05:00 +21°C° 0.1 mm 3 m/s 755 mmHg 76%
06:00 +22°C° 0.1 mm 3 m/s 755 mmHg 72%
07:00 +25°C° 0.1 mm 3 m/s 755 mmHg 69%
08:00 +27°C° 0.1 mm 3 m/s 755 mmHg 63%
09:00 +28°C° 0.1 mm 3 m/s 755 mmHg 57%
10:00 +30°C° 0.1 mm 3 m/s 755 mmHg 52%
11:00 +30°C° 0 mm 3 m/s 755 mmHg 49%
12:00 +31°C° 0 mm 3 m/s 755 mmHg 47%
13:00 +33°C° 0 mm 3 m/s 755 mmHg 44%
14:00 +32°C° 0 mm 2 m/s 755 mmHg 45%
15:00 +32°C° 0 mm 2 m/s 754 mmHg 47%
16:00 +32°C° 0 mm 2 m/s 754 mmHg 48%
17:00 +30°C° 1.2 mm 2 m/s 754 mmHg 59%
18:00 +28°C° 1.2 mm 3 m/s 755 mmHg 70%
19:00 +25°C° 1.2 mm 4 m/s 755 mmHg 81%
20:00 +23°C° 3.1 mm 4 m/s 755 mmHg 85%
21:00 +22°C° 3.1 mm 3 m/s 755 mmHg 90%
22:00 +21°C° 3.1 mm 3 m/s 755 mmHg 95%
23:00 +21°C° 0.6 mm 3 m/s 755 mmHg 95%
Mostrar mais

Necessitamos do seu Consentimento

A Meteoprog e os seus Fornecedores de Serviços podem armazenar e aceder a dados pessoais como cookies, identificadores do dispositivo ou outras tecnologias semelhantes existentes no seu dispositivo e processar estes dados para personalizar conteúdos e anúncios, assim como funcionalidades nas redes sociais e análise de tráfego.

  • Armazenar e/ou aceder a informações no seu dispositivo

    Os cookies, identificadores do dispositivo ou outras informações podem ser armazenados ou acedidos no seu dispositivo, para os fins acima indicados.

  • Anúncios e conteúdos personalizados, medição de anúncios e conteúdos, dados sobre o público-alvo e desenvolvimento de produtos

    Os anúncios e os conteúdos podem ser personalizados com base num perfil. Podem ser adicionados dados adicionais para uma maior personalização dos anúncios e dos conteúdos. A eficácia dos anúncios e dos conteúdos pode ser medida. Podem ser obtidas informações sobre o público que visualizou os anúncios e os conteúdos. Estes dados podem ser usados para desenvolver ou melhorar sistemas, softwares ou a experiência do utilizador.

Ao clicar em "Eu concordo”, permitirá o uso de cookies, identificadores do dispositivo e web beacons mencionados ou outras tecnologias semelhantes. As configurações do navegador do seu dispositivo podem ser alteradas.

Para certos fins, podem ser invocados interesses legítimos ao invés de consentimento. Pode ler mais informação sobre este assunto na nossa Política de Privacidade e Cookies.